Year,Month,Day,Hour,Minute,Value (Times are PST for temperature in C)
2016,06,15,00,00,6.40
2016,06,15,00,01,6.40
2016,06,15,00,02,6.30
2016,06,15,00,03,6.30
2016,06,15,00,04,6.30
2016,06,15,00,05,6.30
2016,06,15,00,06,6.30
2016,06,15,00,07,6.20
2016,06,15,00,08,6.20
2016,06,15,00,09,6.20
2016,06,15,00,10,6.20
2016,06,15,00,11,6.10
2016,06,15,00,12,6.10
2016,06,15,00,13,6.10
2016,06,15,00,14,6.10
2016,06,15,00,15,6.00
2016,06,15,00,16,6.00
2016,06,15,00,17,6.00
2016,06,15,00,18,6.00
2016,06,15,00,19,5.90
2016,06,15,00,20,5.90
2016,06,15,00,21,5.90
2016,06,15,00,22,5.90
2016,06,15,00,23,5.90
2016,06,15,00,24,5.90
2016,06,15,00,25,5.90
2016,06,15,00,26,5.90
2016,06,15,00,27,5.90
2016,06,15,00,28,5.80
2016,06,15,00,29,5.80
2016,06,15,00,30,5.80
2016,06,15,00,31,5.80
2016,06,15,00,32,5.80
2016,06,15,00,33,5.80
2016,06,15,00,34,5.80
2016,06,15,00,35,5.80
2016,06,15,00,36,5.80
2016,06,15,00,37,5.80
2016,06,15,00,38,5.80
2016,06,15,00,39,5.80
2016,06,15,00,40,5.80
2016,06,15,00,41,5.70
2016,06,15,00,42,5.70
2016,06,15,00,43,5.70
2016,06,15,00,44,5.70
2016,06,15,00,45,5.70
2016,06,15,00,46,5.70
2016,06,15,00,47,5.70
2016,06,15,00,48,5.70
2016,06,15,00,49,5.70
2016,06,15,00,50,5.70
2016,06,15,00,51,5.70
2016,06,15,00,52,5.70
2016,06,15,00,53,5.70
2016,06,15,00,54,5.70
2016,06,15,00,55,5.70
2016,06,15,00,56,5.70
2016,06,15,00,57,5.70
2016,06,15,00,58,5.70
2016,06,15,00,59,5.70
2016,06,15,01,00,5.70
2016,06,15,01,01,5.70
2016,06,15,01,02,5.70
2016,06,15,01,03,5.70
2016,06,15,01,04,5.70
2016,06,15,01,05,5.70
2016,06,15,01,06,5.70
2016,06,15,01,07,5.60
2016,06,15,01,08,5.60
2016,06,15,01,09,5.60
2016,06,15,01,10,5.60
2016,06,15,01,11,5.60
2016,06,15,01,12,5.60
2016,06,15,01,13,5.60
2016,06,15,01,14,5.60
2016,06,15,01,15,5.60
2016,06,15,01,16,5.60
2016,06,15,01,17,5.60
2016,06,15,01,18,5.60
2016,06,15,01,19,5.60
2016,06,15,01,20,5.60
2016,06,15,01,21,5.60
2016,06,15,01,22,5.60
2016,06,15,01,23,5.60
2016,06,15,01,24,5.60
2016,06,15,01,25,5.60
2016,06,15,01,26,5.60
2016,06,15,01,27,5.60
2016,06,15,01,28,5.60
2016,06,15,01,29,5.60
2016,06,15,01,30,5.60
2016,06,15,01,31,5.60
2016,06,15,01,32,5.60
2016,06,15,01,33,5.60
2016,06,15,01,34,5.60
2016,06,15,01,35,5.60
2016,06,15,01,36,5.60
2016,06,15,01,37,5.60
2016,06,15,01,38,5.60
2016,06,15,01,39,5.60
2016,06,15,01,40,5.60
2016,06,15,01,41,5.50
2016,06,15,01,42,5.50
2016,06,15,01,43,5.50
2016,06,15,01,44,5.50
2016,06,15,01,45,5.50
2016,06,15,01,46,5.50
2016,06,15,01,47,5.50
2016,06,15,01,48,5.50
2016,06,15,01,49,5.40
2016,06,15,01,50,5.40
2016,06,15,01,51,5.40
2016,06,15,01,52,5.40
2016,06,15,01,53,5.40
2016,06,15,01,54,5.30
2016,06,15,01,55,5.30
2016,06,15,01,56,5.30
2016,06,15,01,57,5.30
2016,06,15,01,58,5.30
2016,06,15,01,59,5.30
2016,06,15,02,00,5.30
2016,06,15,02,01,5.30
2016,06,15,02,02,5.20
2016,06,15,02,03,5.20
2016,06,15,02,04,5.20
2016,06,15,02,05,5.20
2016,06,15,02,06,5.20
2016,06,15,02,07,5.20
2016,06,15,02,08,5.20
2016,06,15,02,09,5.20
2016,06,15,02,10,5.20
2016,06,15,02,11,5.20
2016,06,15,02,12,5.20
2016,06,15,02,13,5.20
2016,06,15,02,14,5.20
2016,06,15,02,15,5.20
2016,06,15,02,16,5.20
2016,06,15,02,17,5.20
2016,06,15,02,18,5.20
2016,06,15,02,19,5.20
2016,06,15,02,20,5.10
2016,06,15,02,21,5.10
2016,06,15,02,22,5.10
2016,06,15,02,23,5.10
2016,06,15,02,24,5.10
2016,06,15,02,25,5.10
2016,06,15,02,26,5.10
2016,06,15,02,27,5.10
2016,06,15,02,28,5.10
2016,06,15,02,29,5.10
2016,06,15,02,30,5.10
2016,06,15,02,31,5.10
2016,06,15,02,32,5.10
2016,06,15,02,33,5.10
2016,06,15,02,34,5.10
2016,06,15,02,35,5.10
2016,06,15,02,36,5.10
2016,06,15,02,37,5.10
2016,06,15,02,38,5.10
2016,06,15,02,39,5.10
2016,06,15,02,40,5.10
2016,06,15,02,41,5.10
2016,06,15,02,42,5.10
2016,06,15,02,43,5.10
2016,06,15,02,44,5.10
2016,06,15,02,45,5.10
2016,06,15,02,46,5.10
2016,06,15,02,47,5.10
2016,06,15,02,48,5.10
2016,06,15,02,49,5.10
2016,06,15,02,50,5.10
2016,06,15,02,51,5.10
2016,06,15,02,52,5.10
2016,06,15,02,53,5.10
2016,06,15,02,54,5.10
2016,06,15,02,55,5.10
2016,06,15,02,56,5.10
2016,06,15,02,57,5.10
2016,06,15,02,58,5.10
2016,06,15,02,59,5.10
2016,06,15,03,00,5.10
2016,06,15,03,01,5.10
2016,06,15,03,02,5.10
2016,06,15,03,03,5.10
2016,06,15,03,04,5.10
2016,06,15,03,05,5.10
2016,06,15,03,06,5.10
2016,06,15,03,07,5.10
2016,06,15,03,08,5.10
2016,06,15,03,09,5.10
2016,06,15,03,10,5.10
2016,06,15,03,11,5.10
2016,06,15,03,12,5.10
2016,06,15,03,13,5.10
2016,06,15,03,14,5.10
2016,06,15,03,15,5.10
2016,06,15,03,16,5.10
2016,06,15,03,17,5.10
2016,06,15,03,18,5.10
2016,06,15,03,19,5.10
2016,06,15,03,20,5.10
2016,06,15,03,21,5.10
2016,06,15,03,22,5.10
2016,06,15,03,23,5.20
2016,06,15,03,24,5.20
2016,06,15,03,25,5.20
2016,06,15,03,26,5.20
2016,06,15,03,27,5.20
2016,06,15,03,28,5.20
2016,06,15,03,29,5.20
2016,06,15,03,30,5.20
2016,06,15,03,31,5.20
2016,06,15,03,32,5.20
2016,06,15,03,33,5.20
2016,06,15,03,34,5.20
2016,06,15,03,35,5.20
2016,06,15,03,36,5.20
2016,06,15,03,37,5.20
2016,06,15,03,38,5.20
2016,06,15,03,39,5.20
2016,06,15,03,40,5.20
2016,06,15,03,41,5.20
2016,06,15,03,42,5.20
2016,06,15,03,43,5.20
2016,06,15,03,44,5.20
2016,06,15,03,45,5.20
2016,06,15,03,46,5.20
2016,06,15,03,47,5.20
2016,06,15,03,48,5.20
2016,06,15,03,49,5.20
2016,06,15,03,50,5.20
2016,06,15,03,51,5.20
2016,06,15,03,52,5.20
2016,06,15,03,53,5.20
2016,06,15,03,54,5.20
2016,06,15,03,55,5.20
2016,06,15,03,56,5.20
2016,06,15,03,57,5.20
2016,06,15,03,58,5.20
2016,06,15,03,59,5.20
2016,06,15,04,00,5.10
2016,06,15,04,01,5.10
2016,06,15,04,02,5.10
2016,06,15,04,03,5.10
2016,06,15,04,04,5.10
2016,06,15,04,05,5.10
2016,06,15,04,06,5.10
2016,06,15,04,07,5.10
2016,06,15,04,08,5.10
2016,06,15,04,09,5.10
2016,06,15,04,10,5.10
2016,06,15,04,11,5.10
2016,06,15,04,12,5.10
2016,06,15,04,13,5.10
2016,06,15,04,14,5.10
2016,06,15,04,15,5.10
2016,06,15,04,16,5.10
2016,06,15,04,17,5.00
2016,06,15,04,18,5.00
2016,06,15,04,19,5.00
2016,06,15,04,20,5.00
2016,06,15,04,21,5.00
2016,06,15,04,22,5.00
2016,06,15,04,23,5.00
2016,06,15,04,24,5.00
2016,06,15,04,25,5.00
2016,06,15,04,26,5.00
2016,06,15,04,27,5.00
2016,06,15,04,28,5.00
2016,06,15,04,29,5.00
2016,06,15,04,30,5.00
2016,06,15,04,31,5.00
2016,06,15,04,32,4.90
2016,06,15,04,33,4.90
2016,06,15,04,34,4.90
2016,06,15,04,35,4.90
2016,06,15,04,36,4.90
2016,06,15,04,37,4.90
2016,06,15,04,38,4.90
2016,06,15,04,39,4.90
2016,06,15,04,40,4.90
2016,06,15,04,41,4.90
2016,06,15,04,42,4.90
2016,06,15,04,43,4.90
2016,06,15,04,44,4.90
2016,06,15,04,45,4.90
2016,06,15,04,46,4.90
2016,06,15,04,47,4.90
2016,06,15,04,48,4.90
2016,06,15,04,49,4.90
2016,06,15,04,50,4.80
2016,06,15,04,51,4.80
2016,06,15,04,52,4.80
2016,06,15,04,53,4.80
2016,06,15,04,54,4.80
2016,06,15,04,55,4.80
2016,06,15,04,56,4.80
2016,06,15,04,57,4.80
2016,06,15,04,58,4.80
2016,06,15,04,59,4.80
2016,06,15,05,00,4.80
2016,06,15,05,01,4.70
2016,06,15,05,02,4.70
2016,06,15,05,03,4.70
2016,06,15,05,04,4.70
2016,06,15,05,05,4.70
2016,06,15,05,06,4.70
2016,06,15,05,07,4.70
2016,06,15,05,08,4.70
2016,06,15,05,09,4.70
2016,06,15,05,10,4.70
2016,06,15,05,11,4.60
2016,06,15,05,12,4.60
2016,06,15,05,13,4.60
2016,06,15,05,14,4.60
2016,06,15,05,15,4.60
2016,06,15,05,16,4.60
2016,06,15,05,17,4.60
2016,06,15,05,18,4.60
2016,06,15,05,19,4.60
2016,06,15,05,20,4.50
2016,06,15,05,21,4.50
2016,06,15,05,22,4.50
2016,06,15,05,23,4.50
2016,06,15,05,24,4.40
2016,06,15,05,25,4.40
2016,06,15,05,26,4.40
2016,06,15,05,27,4.40
2016,06,15,05,28,4.40
2016,06,15,05,29,4.40
2016,06,15,05,30,4.40
2016,06,15,05,31,4.40
2016,06,15,05,32,4.40
2016,06,15,05,33,4.40
2016,06,15,05,34,4.40
2016,06,15,05,35,4.40
2016,06,15,05,36,4.40
2016,06,15,05,37,4.40
2016,06,15,05,38,4.40
2016,06,15,05,39,4.40
2016,06,15,05,40,4.40
2016,06,15,05,41,4.40
2016,06,15,05,42,4.40
2016,06,15,05,43,4.40
2016,06,15,05,44,4.40
2016,06,15,05,45,4.40
2016,06,15,05,46,4.50
2016,06,15,05,47,4.50
2016,06,15,05,48,4.50
2016,06,15,05,49,4.50
2016,06,15,05,50,4.50
2016,06,15,05,51,4.50
2016,06,15,05,52,4.60
2016,06,15,05,53,4.60
2016,06,15,05,54,4.60
2016,06,15,05,55,4.60
2016,06,15,05,56,4.60
2016,06,15,05,57,4.60
2016,06,15,05,58,4.60
2016,06,15,05,59,4.60
2016,06,15,06,00,4.70
2016,06,15,06,01,4.70
2016,06,15,06,02,4.70
2016,06,15,06,03,4.70
2016,06,15,06,04,4.70
2016,06,15,06,05,4.70
2016,06,15,06,06,4.70
2016,06,15,06,07,4.70
2016,06,15,06,08,4.70
2016,06,15,06,09,4.70
2016,06,15,06,10,4.80
2016,06,15,06,11,4.80
2016,06,15,06,12,4.80
2016,06,15,06,13,4.80
2016,06,15,06,14,4.80
2016,06,15,06,15,4.80
2016,06,15,06,16,4.80
2016,06,15,06,17,4.90
2016,06,15,06,18,4.90
2016,06,15,06,19,4.90
2016,06,15,06,20,4.90
2016,06,15,06,21,4.90
2016,06,15,06,22,4.90
2016,06,15,06,23,4.90
2016,06,15,06,24,4.90
2016,06,15,06,25,4.90
2016,06,15,06,26,5.00
2016,06,15,06,27,5.00
2016,06,15,06,28,5.00
2016,06,15,06,29,5.00
2016,06,15,06,30,5.10
2016,06,15,06,31,5.10
2016,06,15,06,32,5.10
2016,06,15,06,33,5.10
2016,06,15,06,34,5.10
2016,06,15,06,35,5.10
2016,06,15,06,36,5.10
2016,06,15,06,37,5.10
2016,06,15,06,38,5.10
2016,06,15,06,39,5.10
2016,06,15,06,40,5.10
2016,06,15,06,41,5.10
2016,06,15,06,42,5.10
2016,06,15,06,43,5.10
2016,06,15,06,44,5.10
2016,06,15,06,45,5.10
2016,06,15,06,46,5.20
2016,06,15,06,47,5.20
2016,06,15,06,48,5.20
2016,06,15,06,49,5.20
2016,06,15,06,50,5.20
2016,06,15,06,51,5.20
2016,06,15,06,52,5.20
2016,06,15,06,53,5.20
2016,06,15,06,54,5.20
2016,06,15,06,55,5.20
2016,06,15,06,56,5.20
2016,06,15,06,57,5.30
2016,06,15,06,58,5.30
2016,06,15,06,59,5.30
2016,06,15,07,00,5.30
2016,06,15,07,01,5.30
2016,06,15,07,02,5.30
2016,06,15,07,03,5.30
2016,06,15,07,04,5.40
2016,06,15,07,05,5.40
2016,06,15,07,06,5.40
2016,06,15,07,07,5.50
2016,06,15,07,08,5.50
2016,06,15,07,09,5.60
2016,06,15,07,10,5.60
2016,06,15,07,11,5.60
2016,06,15,07,12,5.70
2016,06,15,07,13,5.70
2016,06,15,07,14,5.70
2016,06,15,07,15,5.70
2016,06,15,07,16,5.80
2016,06,15,07,17,5.90
2016,06,15,07,18,5.90
2016,06,15,07,19,6.00
2016,06,15,07,20,6.10
2016,06,15,07,21,6.10
2016,06,15,07,22,6.10
2016,06,15,07,23,6.10
2016,06,15,07,24,6.10
2016,06,15,07,25,6.10
2016,06,15,07,26,6.10
2016,06,15,07,27,6.20
2016,06,15,07,28,6.20
2016,06,15,07,29,6.20
2016,06,15,07,30,6.20
2016,06,15,07,31,6.20
2016,06,15,07,32,6.20
2016,06,15,07,33,6.20
2016,06,15,07,34,6.20
2016,06,15,07,35,6.20
2016,06,15,07,36,6.20
2016,06,15,07,37,6.30
2016,06,15,07,38,6.30
2016,06,15,07,39,6.30
2016,06,15,07,40,6.30
2016,06,15,07,41,6.40
2016,06,15,07,42,6.40
2016,06,15,07,43,6.40
2016,06,15,07,44,6.40
2016,06,15,07,45,6.50
2016,06,15,07,46,6.50
2016,06,15,07,47,6.60
2016,06,15,07,48,6.60
2016,06,15,07,49,6.60
2016,06,15,07,50,6.60
2016,06,15,07,51,6.70
2016,06,15,07,52,6.70
2016,06,15,07,53,6.70
2016,06,15,07,54,6.70
2016,06,15,07,55,6.80
2016,06,15,07,56,6.80
2016,06,15,07,57,6.80
2016,06,15,07,58,6.80
2016,06,15,07,59,6.90
2016,06,15,08,00,6.90
2016,06,15,08,01,6.90
2016,06,15,08,02,7.00
2016,06,15,08,03,7.00
2016,06,15,08,04,7.10
2016,06,15,08,05,7.10
2016,06,15,08,06,7.20
2016,06,15,08,07,7.20
2016,06,15,08,08,7.20
2016,06,15,08,09,7.30
2016,06,15,08,10,7.30
2016,06,15,08,11,7.40
2016,06,15,08,12,7.50
2016,06,15,08,13,7.60
2016,06,15,08,14,7.70
2016,06,15,08,15,7.80
2016,06,15,08,16,7.90
2016,06,15,08,17,8.00
2016,06,15,08,18,8.10
2016,06,15,08,19,8.10
2016,06,15,08,20,8.10
2016,06,15,08,21,8.20
2016,06,15,08,22,8.20
2016,06,15,08,23,8.20
2016,06,15,08,24,8.20
2016,06,15,08,25,8.30
2016,06,15,08,26,8.30
2016,06,15,08,27,8.30
2016,06,15,08,28,8.30
2016,06,15,08,29,8.40
2016,06,15,08,30,8.50
2016,06,15,08,31,8.50
2016,06,15,08,32,8.60
2016,06,15,08,33,8.60
2016,06,15,08,34,8.60
2016,06,15,08,35,8.70
2016,06,15,08,36,8.70
2016,06,15,08,37,8.70
2016,06,15,08,38,8.70
2016,06,15,08,39,8.70
2016,06,15,08,40,8.70
2016,06,15,08,41,8.80
2016,06,15,08,42,8.80
2016,06,15,08,43,8.80
2016,06,15,08,44,8.80
2016,06,15,08,45,8.90
2016,06,15,08,46,8.90
2016,06,15,08,47,9.00
2016,06,15,08,48,9.10
2016,06,15,08,49,9.10
2016,06,15,08,50,9.10
2016,06,15,08,51,9.20
2016,06,15,08,52,9.20
2016,06,15,08,53,9.20
2016,06,15,08,54,9.20
2016,06,15,08,55,9.20
2016,06,15,08,56,9.20
2016,06,15,08,57,9.20
2016,06,15,08,58,9.20
2016,06,15,08,59,9.20
2016,06,15,09,00,9.30
2016,06,15,09,01,9.30
2016,06,15,09,02,9.30
2016,06,15,09,03,9.30
2016,06,15,09,04,9.40
2016,06,15,09,05,9.50
2016,06,15,09,06,9.50
2016,06,15,09,07,9.60
2016,06,15,09,08,9.60
2016,06,15,09,09,9.60
2016,06,15,09,10,9.60
2016,06,15,09,11,9.60
2016,06,15,09,12,9.60
2016,06,15,09,13,9.60
2016,06,15,09,14,9.60
2016,06,15,09,15,9.60
2016,06,15,09,16,9.70
2016,06,15,09,17,9.70
2016,06,15,09,18,9.70
2016,06,15,09,19,9.70
2016,06,15,09,20,9.80
2016,06,15,09,21,9.80
2016,06,15,09,22,9.80
2016,06,15,09,23,9.80
2016,06,15,09,24,9.80
2016,06,15,09,25,9.90
2016,06,15,09,26,9.90
2016,06,15,09,27,10.00
2016,06,15,09,28,10.00
2016,06,15,09,29,10.00
2016,06,15,09,30,10.00
2016,06,15,09,31,10.00
2016,06,15,09,32,10.00
2016,06,15,09,33,9.90
2016,06,15,09,34,9.90
2016,06,15,09,35,9.90
2016,06,15,09,36,9.90
2016,06,15,09,37,9.90
2016,06,15,09,38,10.00
2016,06,15,09,39,10.00
2016,06,15,09,40,10.00
2016,06,15,09,41,10.00
2016,06,15,09,42,10.00
2016,06,15,09,43,10.10
2016,06,15,09,44,10.10
2016,06,15,09,45,10.10
2016,06,15,09,46,10.20
2016,06,15,09,47,10.30
2016,06,15,09,48,10.30
2016,06,15,09,49,10.40
2016,06,15,09,50,10.40
2016,06,15,09,51,10.40
2016,06,15,09,52,10.40
2016,06,15,09,53,10.50
2016,06,15,09,54,10.50
2016,06,15,09,55,10.50
2016,06,15,09,56,10.50
2016,06,15,09,57,10.50
2016,06,15,09,58,10.50
2016,06,15,09,59,10.50
2016,06,15,10,00,10.50
2016,06,15,10,01,10.50
2016,06,15,10,02,10.60
2016,06,15,10,03,10.60
2016,06,15,10,04,10.60
2016,06,15,10,05,10.60
2016,06,15,10,06,10.70
2016,06,15,10,07,10.70
2016,06,15,10,08,10.70
2016,06,15,10,09,10.70
2016,06,15,10,10,10.70
2016,06,15,10,11,10.80
2016,06,15,10,12,10.80
2016,06,15,10,13,10.80
2016,06,15,10,14,10.80
2016,06,15,10,15,10.90
2016,06,15,10,16,11.00
2016,06,15,10,17,11.00
2016,06,15,10,18,11.00
2016,06,15,10,19,11.00
2016,06,15,10,20,11.00
2016,06,15,10,21,11.00
2016,06,15,10,22,11.00
2016,06,15,10,23,11.10
2016,06,15,10,24,11.10
2016,06,15,10,25,11.10
2016,06,15,10,26,11.00
2016,06,15,10,27,11.00
2016,06,15,10,28,11.00
2016,06,15,10,29,11.10
2016,06,15,10,30,11.20
2016,06,15,10,31,11.20
2016,06,15,10,32,11.30
2016,06,15,10,33,11.30
2016,06,15,10,34,11.30
2016,06,15,10,35,11.40
2016,06,15,10,36,11.50
2016,06,15,10,37,11.70
2016,06,15,10,38,11.80
2016,06,15,10,39,12.00
2016,06,15,10,40,12.10
2016,06,15,10,41,12.10
2016,06,15,10,42,12.20
2016,06,15,10,43,12.30
2016,06,15,10,44,12.50
2016,06,15,10,45,12.60
2016,06,15,10,46,12.70
2016,06,15,10,47,12.70
2016,06,15,10,48,12.90
2016,06,15,10,49,13.00
2016,06,15,10,50,13.10
2016,06,15,10,51,13.20
2016,06,15,10,52,13.30
2016,06,15,10,53,13.30
2016,06,15,10,54,13.30
2016,06,15,10,55,13.40
2016,06,15,10,56,13.40
2016,06,15,10,57,13.40
2016,06,15,10,58,13.40
2016,06,15,10,59,13.40
2016,06,15,11,00,13.40
2016,06,15,11,01,13.40
2016,06,15,11,02,13.30
2016,06,15,11,03,13.30
2016,06,15,11,04,13.30
2016,06,15,11,05,13.30
2016,06,15,11,06,13.30
2016,06,15,11,07,13.30
2016,06,15,11,08,13.20
2016,06,15,11,09,13.20
2016,06,15,11,10,13.20
2016,06,15,11,11,13.30
2016,06,15,11,12,13.30
2016,06,15,11,13,13.30
2016,06,15,11,14,13.30
2016,06,15,11,15,13.30
2016,06,15,11,16,13.20
2016,06,15,11,17,13.10
2016,06,15,11,18,13.10
2016,06,15,11,19,13.10
2016,06,15,11,20,13.20
2016,06,15,11,21,13.30
2016,06,15,11,22,13.40
2016,06,15,11,23,13.60
2016,06,15,11,24,13.80
2016,06,15,11,25,13.90
2016,06,15,11,26,14.00
2016,06,15,11,27,14.10
2016,06,15,11,28,14.20
2016,06,15,11,29,14.30
2016,06,15,11,30,14.50
2016,06,15,11,31,14.60
2016,06,15,11,32,14.70
2016,06,15,11,33,14.90
2016,06,15,11,34,15.00
2016,06,15,11,35,15.00
2016,06,15,11,36,15.00
2016,06,15,11,37,15.00
2016,06,15,11,38,14.80
2016,06,15,11,39,14.60
2016,06,15,11,40,14.40
2016,06,15,11,41,14.20
2016,06,15,11,42,14.00
2016,06,15,11,43,13.90
2016,06,15,11,44,13.80
2016,06,15,11,45,13.60
2016,06,15,11,46,13.60
2016,06,15,11,47,13.50
2016,06,15,11,48,13.40
2016,06,15,11,49,13.30
2016,06,15,11,50,13.20
2016,06,15,11,51,13.10
2016,06,15,11,52,13.10
2016,06,15,11,53,13.00
2016,06,15,11,54,12.90
2016,06,15,11,55,12.80
2016,06,15,11,56,12.70
2016,06,15,11,57,12.60
2016,06,15,11,58,12.50
2016,06,15,11,59,12.40
2016,06,15,12,00,12.40
2016,06,15,12,01,12.30
2016,06,15,12,02,12.30
2016,06,15,12,03,12.20
2016,06,15,12,04,12.10
2016,06,15,12,05,12.00
2016,06,15,12,06,11.90
2016,06,15,12,07,11.80
2016,06,15,12,08,11.80
2016,06,15,12,09,11.80
2016,06,15,12,10,11.80
2016,06,15,12,11,11.80
2016,06,15,12,12,11.80
2016,06,15,12,13,11.80
2016,06,15,12,14,11.70
2016,06,15,12,15,11.70
2016,06,15,12,16,11.70
2016,06,15,12,17,11.60
2016,06,15,12,18,11.60
2016,06,15,12,19,11.50
2016,06,15,12,20,11.40
2016,06,15,12,21,11.40
2016,06,15,12,22,11.40
2016,06,15,12,23,11.30
2016,06,15,12,24,11.30
2016,06,15,12,25,11.30
2016,06,15,12,26,11.30
2016,06,15,12,27,11.30
2016,06,15,12,28,11.20
2016,06,15,12,29,11.20
2016,06,15,12,30,11.20
2016,06,15,12,31,11.20
2016,06,15,12,32,11.10
2016,06,15,12,33,11.10
2016,06,15,12,34,11.10
2016,06,15,12,35,11.10
2016,06,15,12,36,11.10
2016,06,15,12,37,11.10
2016,06,15,12,38,11.10
2016,06,15,12,39,11.20
2016,06,15,12,40,11.20
2016,06,15,12,41,11.20
2016,06,15,12,42,11.30
2016,06,15,12,43,11.30
2016,06,15,12,44,11.40
2016,06,15,12,45,11.50
2016,06,15,12,46,11.70
2016,06,15,12,47,11.70
2016,06,15,12,48,11.80
2016,06,15,12,49,11.90
2016,06,15,12,50,11.90
2016,06,15,12,51,12.10
2016,06,15,12,52,12.10
2016,06,15,12,53,12.10
2016,06,15,12,54,12.20
2016,06,15,12,55,12.20
2016,06,15,12,56,12.30
2016,06,15,12,57,12.30
2016,06,15,12,58,12.30
2016,06,15,12,59,12.30
2016,06,15,13,00,12.40
2016,06,15,13,01,12.40
2016,06,15,13,02,12.40
2016,06,15,13,03,12.50
2016,06,15,13,04,12.50
2016,06,15,13,05,12.40
2016,06,15,13,06,12.40
2016,06,15,13,07,12.30
2016,06,15,13,08,12.40
2016,06,15,13,09,12.40
2016,06,15,13,10,12.40
2016,06,15,13,11,12.50
2016,06,15,13,12,12.60
2016,06,15,13,13,12.70
2016,06,15,13,14,12.80
2016,06,15,13,15,12.90
2016,06,15,13,16,12.90
2016,06,15,13,17,12.90
2016,06,15,13,18,13.00
2016,06,15,13,19,13.00
2016,06,15,13,20,13.00
2016,06,15,13,21,13.10
2016,06,15,13,22,13.00
2016,06,15,13,23,13.00
2016,06,15,13,24,13.00
2016,06,15,13,25,13.00
2016,06,15,13,26,13.10
2016,06,15,13,27,13.10
2016,06,15,13,28,13.20
2016,06,15,13,29,13.20
2016,06,15,13,30,13.20
2016,06,15,13,31,13.10
2016,06,15,13,32,13.10
2016,06,15,13,33,13.10
2016,06,15,13,34,13.10
2016,06,15,13,35,13.10
2016,06,15,13,36,13.10
2016,06,15,13,37,13.20
2016,06,15,13,38,13.20
2016,06,15,13,39,13.30
2016,06,15,13,40,13.30
2016,06,15,13,41,13.30
2016,06,15,13,42,13.40
2016,06,15,13,43,13.50
2016,06,15,13,44,13.60
2016,06,15,13,45,13.70
2016,06,15,13,46,13.80
2016,06,15,13,47,13.90
2016,06,15,13,48,14.00
2016,06,15,13,49,14.10
2016,06,15,13,50,14.30
2016,06,15,13,51,14.40
2016,06,15,13,52,14.40
2016,06,15,13,53,14.40
2016,06,15,13,54,14.30
2016,06,15,13,55,14.20
2016,06,15,13,56,14.20
2016,06,15,13,57,14.10
2016,06,15,13,58,14.10
2016,06,15,13,59,14.00
2016,06,15,14,00,13.90
2016,06,15,14,01,13.80
2016,06,15,14,02,13.70
2016,06,15,14,03,13.60
2016,06,15,14,04,13.50
2016,06,15,14,05,13.40
2016,06,15,14,06,13.40
2016,06,15,14,07,13.40
2016,06,15,14,08,13.40
2016,06,15,14,09,13.40
2016,06,15,14,10,13.50
2016,06,15,14,11,13.50
2016,06,15,14,12,13.50
2016,06,15,14,13,13.40
2016,06,15,14,14,13.30
2016,06,15,14,15,13.30
2016,06,15,14,16,13.30
2016,06,15,14,17,13.20
2016,06,15,14,18,13.20
2016,06,15,14,19,13.20
2016,06,15,14,20,13.20
2016,06,15,14,21,13.20
2016,06,15,14,22,13.10
2016,06,15,14,23,13.00
2016,06,15,14,24,13.00
2016,06,15,14,25,12.90
2016,06,15,14,26,12.80
2016,06,15,14,27,12.80
2016,06,15,14,28,12.80
2016,06,15,14,29,12.80
2016,06,15,14,30,12.80
2016,06,15,14,31,12.80
2016,06,15,14,32,12.80
2016,06,15,14,33,12.70
2016,06,15,14,34,12.70
2016,06,15,14,35,12.70
2016,06,15,14,36,12.70
2016,06,15,14,37,12.60
2016,06,15,14,38,12.60
2016,06,15,14,39,12.50
2016,06,15,14,40,12.40
2016,06,15,14,41,12.30
2016,06,15,14,42,12.20
2016,06,15,14,43,12.20
2016,06,15,14,44,12.10
2016,06,15,14,45,12.10
2016,06,15,14,46,12.10
2016,06,15,14,47,12.10
2016,06,15,14,48,12.10
2016,06,15,14,49,12.10
2016,06,15,14,50,12.10
2016,06,15,14,51,12.10
2016,06,15,14,52,12.20
2016,06,15,14,53,12.20
2016,06,15,14,54,12.20
2016,06,15,14,55,12.20
2016,06,15,14,56,12.20
2016,06,15,14,57,12.20
2016,06,15,14,58,12.20
2016,06,15,14,59,12.20
2016,06,15,15,00,12.20
2016,06,15,15,01,12.20
2016,06,15,15,02,12.30
2016,06,15,15,03,12.30
2016,06,15,15,04,12.40
2016,06,15,15,05,12.40
2016,06,15,15,06,12.40
2016,06,15,15,07,12.40
2016,06,15,15,08,12.50
2016,06,15,15,09,12.50
2016,06,15,15,10,12.50
2016,06,15,15,11,12.60
2016,06,15,15,12,12.60
2016,06,15,15,13,12.50
2016,06,15,15,14,12.40
2016,06,15,15,15,12.40
2016,06,15,15,16,12.40
2016,06,15,15,17,12.40
2016,06,15,15,18,12.40
2016,06,15,15,19,12.50
2016,06,15,15,20,12.60
2016,06,15,15,21,12.70
2016,06,15,15,22,12.80
2016,06,15,15,23,12.80
2016,06,15,15,24,12.90
2016,06,15,15,25,12.90
2016,06,15,15,26,12.90
2016,06,15,15,27,12.90
2016,06,15,15,28,12.90
2016,06,15,15,29,12.90
2016,06,15,15,30,12.90
2016,06,15,15,31,12.80
2016,06,15,15,32,12.70
2016,06,15,15,33,12.60
2016,06,15,15,34,12.50
2016,06,15,15,35,12.40
2016,06,15,15,36,12.30
2016,06,15,15,37,12.30
2016,06,15,15,38,12.20
2016,06,15,15,39,12.20
2016,06,15,15,40,12.20
2016,06,15,15,41,12.20
2016,06,15,15,42,12.20
2016,06,15,15,43,12.20
2016,06,15,15,44,12.20
2016,06,15,15,45,12.20
2016,06,15,15,46,12.20
2016,06,15,15,47,12.30
2016,06,15,15,48,12.30
2016,06,15,15,49,12.30
2016,06,15,15,50,12.30
2016,06,15,15,51,12.30
2016,06,15,15,52,12.30
2016,06,15,15,53,12.30
2016,06,15,15,54,12.30
2016,06,15,15,55,12.30
2016,06,15,15,56,12.30
2016,06,15,15,57,12.30
2016,06,15,15,58,12.30
2016,06,15,15,59,12.30
2016,06,15,16,00,12.30
2016,06,15,16,01,12.30
2016,06,15,16,02,12.30
2016,06,15,16,03,12.30
2016,06,15,16,04,12.30
2016,06,15,16,05,12.30
2016,06,15,16,06,12.30
2016,06,15,16,07,12.30
2016,06,15,16,08,12.30
2016,06,15,16,09,12.30
2016,06,15,16,10,12.40
2016,06,15,16,11,12.40
2016,06,15,16,12,12.40
2016,06,15,16,13,12.50
2016,06,15,16,14,12.50
2016,06,15,16,15,12.60
2016,06,15,16,16,12.60
2016,06,15,16,17,12.70
2016,06,15,16,18,12.80
2016,06,15,16,19,12.80
2016,06,15,16,20,12.80
2016,06,15,16,21,12.70
2016,06,15,16,22,12.60
2016,06,15,16,23,12.40
2016,06,15,16,24,12.30
2016,06,15,16,25,12.30
2016,06,15,16,26,12.20
2016,06,15,16,27,12.20
2016,06,15,16,28,12.10
2016,06,15,16,29,12.10
2016,06,15,16,30,12.10
2016,06,15,16,31,12.00
2016,06,15,16,32,12.00
2016,06,15,16,33,12.10
2016,06,15,16,34,12.10
2016,06,15,16,35,12.10
2016,06,15,16,36,12.20
2016,06,15,16,37,12.30
2016,06,15,16,38,12.30
2016,06,15,16,39,12.40
2016,06,15,16,40,12.50
2016,06,15,16,41,12.60
2016,06,15,16,42,12.60
2016,06,15,16,43,12.70
2016,06,15,16,44,12.70
2016,06,15,16,45,12.70
2016,06,15,16,46,12.70
2016,06,15,16,47,12.70
2016,06,15,16,48,12.70
2016,06,15,16,49,12.80
2016,06,15,16,50,12.80
2016,06,15,16,51,12.90
2016,06,15,16,52,13.00
2016,06,15,16,53,13.20
2016,06,15,16,54,13.30
2016,06,15,16,55,13.30
2016,06,15,16,56,13.30
2016,06,15,16,57,13.40
2016,06,15,16,58,13.40
2016,06,15,16,59,13.40
2016,06,15,17,00,13.40
2016,06,15,17,01,13.40
2016,06,15,17,02,13.50
2016,06,15,17,03,13.60
2016,06,15,17,04,13.70
2016,06,15,17,05,13.70
2016,06,15,17,06,13.80
2016,06,15,17,07,13.90
2016,06,15,17,08,14.00
2016,06,15,17,09,14.10
2016,06,15,17,10,14.20
2016,06,15,17,11,14.30
2016,06,15,17,12,14.30
2016,06,15,17,13,14.30
2016,06,15,17,14,14.40
2016,06,15,17,15,14.40
2016,06,15,17,16,14.50
2016,06,15,17,17,14.60
2016,06,15,17,18,14.60
2016,06,15,17,19,14.70
2016,06,15,17,20,14.70
2016,06,15,17,21,14.70
2016,06,15,17,22,14.80
2016,06,15,17,23,14.80
2016,06,15,17,24,14.60
2016,06,15,17,25,14.50
2016,06,15,17,26,14.50
2016,06,15,17,27,14.50
2016,06,15,17,28,14.50
2016,06,15,17,29,14.60
2016,06,15,17,30,14.50
2016,06,15,17,31,14.40
2016,06,15,17,32,14.40
2016,06,15,17,33,14.40
2016,06,15,17,34,14.40
2016,06,15,17,35,14.50
2016,06,15,17,36,14.50
2016,06,15,17,37,14.60
2016,06,15,17,38,14.70
2016,06,15,17,39,14.70
2016,06,15,17,40,14.60
2016,06,15,17,41,14.50
2016,06,15,17,42,14.30
2016,06,15,17,43,14.20
2016,06,15,17,44,14.10